Wind_Speed
78 81 84 86 87 85 83 87 90 93 94 93 93 93 92 91 89 85 81 79 78 76 74 72 72 70 65 63 62 60 58 57 57 58 59 59 59 60 59 55 51 50 51 49 47 48 46 42 38 35 31 26 23 19 18 20 23 24 25 24 24 24 24 24 24 24 23 22 19 15 12 10 8 7 5 5 7 6 7 6 6 6 6 6 5
83 84 86 88 89 89 92 97 98 97 95 92 91 90 88 86 83 78 75 73 73 73 71 69 67 64 62 61 58 55 54 53 53 55 56 57 57 57 55 52 49 49 49 48 47 47 42 37 35 32 28 24 22 19 19 22 24 25 25 25 25 25 24 24 24 23 24 22 19 17 14 11 9 8 7 7 8 7 8 8 8 7 6 5 5
88 88 88 89 91 96 99 100 98 94 91 89 88 87 84 80 76 73 71 70 69 69 68 67 65 63 61 59 55 53 51 49 51 52 53 54 54 53 51 49 48 48 49 47 46 43 36 34 32 29 26 25 23 19 20 23 26 26 26 26 26 26 25 23 23 23 23 22 20 18 15 12 10 9 8 9 9 9 9 9 10 9 8 7 6
93 93 90 90 93 96 97 98 96 92 90 88 86 82 78 74 71 69 67 66 65 66 65 64 64 63 60 56 52 50 48 49 51 51 51 51 50 50 48 47 46 47 47 45 43 38 32 31 30 27 25 25 22 19 22 25 28 27 27 27 27 26 24 23 22 22 22 22 21 19 16 13 11 10 9 10 11 10 11 11 11 11 10 9 8
97 97 94 94 96 97 98 97 93 91 88 85 81 76 73 70 68 65 63 62 62 62 63 62 62 63 58 53 51 50 50 51 51 51 49 48 48 47 46 45 45 45 45 42 39 33 29 29 26 24 25 24 21 20 23 27 28 27 27 27 27 25 24 23 22 21 21 22 21 20 16 14 12 10 10 10 12 12 12 12 12 12 11 11 10
99 99 98 97 98 98 96 91 88 87 83 79 75 72 69 67 64 62 61 60 59 59 60 60 59 59 57 54 54 55 55 54 51 49 47 47 46 45 44 43 43 43 42 39 35 30 27 28 24 24 26 25 22 22 25 29 28 26 26 26 26 25 23 22 21 21 21 21 21 20 17 15 13 11 10 11 12 12 13 13 13 13 12 12 12
100 100 99 98 95 93 87 83 83 82 77 74 71 69 67 64 62 61 59 58 57 54 55 56 56 57 57 58 58 59 57 54 51 49 47 46 45 43 42 41 41 40 39 35 32 29 27 27 24 27 30 28 23 23 28 29 26 24 23 24 25 25 23 22 21 21 21 20 20 20 17 15 14 12 11 11 12 13 14 13 13 13 13 13 13
101 100 98 95 90 87 85 81 80 76 72 69 67 65 64 62 61 59 57 55 54 51 50 53 56 56 56 59 60 59 57 53 51 50 48 46 44 42 40 38 38 37 36 33 31 29 26 26 26 29 32 31 25 25 31 27 22 22 22 22 24 25 23 21 21 21 20 19 19 19 18 17 16 14 12 12 13 14 14 14 14 13 13 13 13
101 98 95 91 88 86 84 80 75 71 67 65 63 63 62 61 60 58 56 53 51 48 48 51 54 55 55 58 59 58 56 53 51 50 47 44 42 40 37 36 36 35 33 32 30 28 26 26 27 31 33 32 28 28 33 27 21 25 24 23 24 25 24 22 21 21 20 18 19 19 18 17 16 15 14 13 14 14 15 15 14 14 13 13 13
99 96 91 87 86 85 81 76 70 65 62 61 61 61 61 60 59 57 53 51 48 45 47 49 52 54 55 56 57 56 54 52 51 49 46 42 40 38 36 35 35 34 33 31 29 27 26 26 29 33 35 33 29 30 33 28 23 26 27 25 25 25 24 23 21 21 20 18 19 19 18 18 17 16 16 15 15 15 15 15 15 14 14 13 13
95 92 89 85 84 81 77 71 64 59 58 57 57 56 56 57 57 54 48 46 45 45 48 48 50 53 54 55 55 53 51 50 51 48 45 40 38 37 36 35 34 34 32 30 28 27 26 27 33 35 35 32 30 33 35 29 24 27 30 26 25 25 24 24 23 22 20 19 20 20 19 19 18 17 17 16 15 15 15 15 15 15 14 14 14
91 88 86 84 81 77 72 64 56 53 52 47 42 42 48 49 49 48 45 44 45 46 47 48 50 52 52 54 53 51 50 50 48 45 42 38 36 36 35 35 33 33 32 30 28 27 26 30 35 36 35 33 34 36 36 31 25 26 31 30 27 27 27 27 25 22 19 20 21 21 20 20 19 18 17 17 16 16 16 15 15 14 14 14 14
88 86 83 80 77 73 66 58 50 48 46 37 28 31 40 42 41 42 42 44 45 46 48 49 50 50 51 52 50 50 49 48 44 40 38 36 35 35 35 34 32 32 31 30 29 27 27 33 37 37 35 33 36 38 37 34 27 26 31 32 29 28 28 29 26 22 19 20 20 20 20 20 20 18 18 17 17 18 17 16 15 14 14 14 15
85 83 80 77 74 68 60 52 47 45 44 36 31 34 37 38 40 41 41 43 45 45 47 47 48 49 49 49 48 49 48 43 39 36 35 34 34 34 34 33 32 32 31 30 29 28 29 36 39 37 36 34 35 36 38 36 29 28 31 31 28 27 28 29 27 23 20 20 20 20 19 19 20 19 18 18 19 19 18 17 15 15 15 15 15
82 80 77 74 70 64 56 49 45 43 41 37 36 39 39 41 43 42 43 44 44 42 42 43 45 45 44 44 46 45 42 37 33 33 33 33 33 34 33 32 31 31 31 30 29 29 31 39 41 38 37 35 33 34 39 37 29 30 34 33 29 27 28 28 27 24 21 19 19 19 19 19 20 20 20 20 20 20 19 17 16 17 17 17 16
79 77 74 71 67 61 54 49 44 39 37 35 37 40 43 46 47 45 43 43 40 38 38 39 41 41 39 40 41 38 34 31 30 31 30 30 31 32 33 32 31 31 31 30 30 30 33 41 43 41 37 37 34 33 39 37 28 29 33 35 32 29 29 29 28 25 21 19 19 18 18 19 20 20 21 22 22 21 19 18 18 18 18 18 17
76 73 71 68 64 59 53 48 45 42 41 40 39 39 41 44 46 43 40 40 38 37 38 38 38 38 38 37 35 32 29 27 26 27 27 28 29 32 33 31 30 31 30 30 30 30 35 42 45 44 39 38 38 34 38 37 31 30 32 33 32 30 30 30 28 25 23 21 21 20 20 21 21 21 21 21 21 21 20 19 19 19 19 18 18
72 70 68 65 62 57 52 49 46 47 49 48 47 45 43 42 43 43 42 42 40 38 38 38 39 39 37 33 31 29 25 23 23 24 25 26 28 30 31 30 30 30 30 30 31 31 35 42 45 46 42 39 40 38 38 38 35 34 34 34 33 32 30 30 29 26 25 24 23 23 23 24 23 22 21 20 21 21 22 22 21 21 20 19 19
68 67 65 62 60 56 52 49 47 48 51 52 53 52 48 46 46 46 46 44 42 40 40 40 41 39 33 29 29 27 23 22 22 22 23 23 25 27 28 29 30 30 30 30 31 32 36 42 45 47 45 40 40 40 41 40 36 35 37 35 33 34 33 30 30 28 26 25 25 25 25 25 23 23 22 20 20 21 22 23 23 22 21 20 19
65 64 62 60 58 56 52 50 48 48 50 53 55 57 55 53 51 48 46 45 43 41 41 40 38 34 31 29 27 25 24 22 22 21 21 22 23 25 27 29 30 30 30 30 30 31 36 41 44 48 48 42 39 40 42 41 38 35 35 33 31 33 34 32 31 29 27 27 26 25 26 26 25 24 23 21 21 21 22 24 23 22 21 20 19
62 61 60 59 57 55 53 50 49 49 50 52 55 58 59 57 53 49 46 43 41 39 37 34 31 30 29 28 26 25 24 22 21 22 21 22 22 24 27 29 30 30 29 29 29 30 34 40 43 47 50 46 40 38 42 43 39 34 31 29 28 32 35 34 33 31 29 29 29 27 27 27 26 25 23 21 21 22 23 24 24 22 20 20 18
59 58 57 56 56 54 53 51 49 49 50 51 54 58 60 59 55 50 45 40 36 34 32 30 29 29 28 27 25 25 25 22 21 22 22 22 23 24 27 29 30 29 29 28 28 29 33 39 43 46 51 49 42 38 40 45 42 36 31 26 25 30 35 36 35 33 31 30 30 29 28 27 25 24 22 21 22 23 24 24 23 22 21 21 20
56 55 54 54 53 53 52 51 50 49 49 50 53 56 58 57 54 50 45 39 33 29 29 30 30 29 27 26 26 26 26 23 22 22 22 23 24 26 28 29 29 28 28 28 29 29 31 38 45 48 50 48 44 39 38 44 43 40 36 28 23 27 34 38 37 35 33 31 31 30 29 27 25 23 22 22 23 24 24 23 22 21 21 22 22
54 53 52 51 51 50 50 50 49 49 48 49 50 54 56 56 54 51 47 41 33 27 26 28 29 28 27 26 25 25 25 24 23 23 23 24 25 27 28 29 29 28 28 28 29 30 31 37 45 50 49 46 43 41 38 41 43 42 39 32 24 24 31 37 38 37 35 32 31 30 30 29 28 25 23 22 22 22 22 22 22 22 23 24 25
52 50 50 49 49 49 49 49 49 48 48 48 48 51 54 55 55 53 49 43 36 29 25 26 27 28 27 26 25 23 24 24 24 24 24 24 25 26 28 29 29 29 29 28 28 30 32 36 44 50 50 45 42 43 41 40 41 43 41 35 28 25 28 34 37 36 35 34 32 31 30 30 29 28 26 24 21 20 21 21 22 23 23 23 24
49 48 47 47 46 46 47 47 47 47 47 47 47 49 51 52 53 52 50 45 40 32 26 25 25 27 28 26 24 23 24 26 25 25 25 24 24 25 27 29 29 30 30 29 28 29 31 34 41 49 51 47 43 44 44 40 39 42 43 39 33 27 27 30 33 33 34 34 34 33 31 30 29 29 29 27 24 23 22 21 20 19 19 20 21
46 45 44 44 44 44 44 44 45 45 45 45 45 46 47 48 49 50 49 46 42 37 30 27 24 25 26 26 24 24 25 26 26 25 24 22 22 23 25 27 29 30 31 30 29 29 30 33 39 46 51 49 45 44 45 41 37 40 43 43 37 31 28 27 29 30 31 32 33 33 31 30 29 29 29 28 26 25 25 24 22 20 19 19 20
42 42 42 41 42 42 42 42 42 42 43 43 43 44 45 45 47 48 49 46 44 41 36 29 25 23 24 25 24 24 25 25 25 24 23 21 21 22 23 25 28 29 30 29 29 28 29 31 35 43 49 51 47 45 46 43 38 38 42 44 40 35 32 30 29 30 30 30 30 32 32 31 30 30 29 27 25 24 24 25 24 23 22 20 20
40 40 40 40 40 40 40 40 40 40 41 41 41 41 42 44 46 47 48 46 44 43 39 31 26 25 24 25 23 23 25 24 24 23 21 20 20 19 20 22 25 27 27 27 27 28 29 30 33 38 47 51 50 47 47 46 42 38 40 44 44 39 36 35 34 33 32 30 29 29 31 33 32 30 28 26 23 22 22 22 23 23 24 23 22
38 39 38 38 38 39 38 38 38 38 38 39 39 40 41 43 45 46 46 46 44 43 42 34 29 28 26 25 24 23 24 22 23 23 20 20 19 18 18 19 22 24 24 24 24 26 28 29 31 34 42 50 52 50 48 48 45 41 39 41 45 44 40 39 38 37 36 34 30 28 28 32 34 31 27 25 24 23 22 22 22 23 24 25 24
37 37 37 37 37 37 37 37 37 36 37 37 38 39 41 42 44 45 45 45 43 43 42 37 31 29 27 26 25 25 25 22 23 24 21 21 20 18 17 17 19 21 22 23 22 23 26 27 29 31 37 46 51 50 49 49 48 45 41 39 43 45 42 40 40 39 39 37 34 30 27 28 32 32 29 27 27 26 25 24 24 24 23 24 24
36 36 36 36 36 36 36 36 36 35 36 37 37 38 40 41 43 44 44 44 43 42 41 38 33 28 27 28 27 27 27 25 24 24 22 22 22 19 17 16 17 19 21 22 22 23 24 25 27 29 33 41 48 49 48 50 50 48 45 40 40 44 44 41 40 40 39 39 38 35 30 27 29 30 29 28 28 28 27 25 26 26 25 23 23
35 35 35 35 35 35 36 36 36 35 35 36 37 38 39 40 42 43 43 43 43 42 41 41 34 26 28 30 30 29 29 29 26 24 24 24 23 21 19 18 17 18 20 22 23 23 24 24 24 26 29 36 44 47 48 50 52 50 48 44 41 42 45 43 41 40 39 39 40 39 35 31 29 29 27 26 26 27 27 27 28 28 27 24 23
34 34 34 35 34 34 35 35 35 35 35 36 38 39 40 40 41 42 42 42 42 42 42 44 36 27 29 31 32 32 31 32 30 27 25 24 24 22 21 21 19 18 19 21 23 24 24 23 23 24 26 32 40 46 48 50 52 53 51 49 45 42 44 45 44 41 39 39 40 40 37 34 32 31 29 27 26 27 28 29 29 29 28 26 23
33 34 34 34 35 34 35 36 36 36 36 36 38 39 40 41 41 42 42 41 41 41 42 45 41 32 32 33 34 34 34 34 32 29 26 25 24 22 22 24 22 19 19 20 22 23 23 23 22 22 24 28 35 43 47 49 51 53 54 52 50 48 46 45 45 44 40 39 40 40 38 36 35 35 33 30 28 28 29 29 29 30 30 27 24
34 34 35 35 35 35 35 36 36 36 36 37 37 39 40 41 42 42 43 42 41 42 42 44 45 39 36 37 37 37 36 36 34 31 28 27 27 25 25 26 24 21 20 20 20 21 21 21 20 21 22 25 30 39 45 49 50 52 54 55 55 53 51 47 45 45 42 40 41 41 40 38 38 37 36 33 30 29 30 29 29 31 31 28 25
35 35 36 35 35 35 35 36 36 37 37 37 38 38 40 41 42 42 43 43 42 42 43 44 45 43 41 41 41 40 40 39 37 34 31 31 31 29 28 27 25 23 23 22 21 20 20 20 19 20 21 23 26 33 40 47 49 50 51 54 56 56 55 52 49 46 45 43 42 43 43 42 40 39 37 36 33 31 31 31 30 31 31 30 28
36 36 37 36 36 36 36 36 36 37 38 39 39 39 40 41 42 43 43 44 44 43 44 45 45 44 44 44 43 42 42 42 39 36 34 34 33 32 31 29 26 25 25 25 23 21 20 19 19 19 20 21 24 27 33 41 47 48 48 50 53 55 55 54 52 50 49 47 45 45 45 45 43 41 39 37 36 34 33 32 32 32 32 31 29
37 37 37 38 37 37 37 36 37 37 38 39 40 40 41 41 42 43 43 44 45 45 45 46 46 44 45 46 46 44 43 42 41 39 37 36 36 36 35 32 28 27 27 25 25 25 22 20 20 19 19 20 22 25 28 35 42 46 47 47 49 51 53 53 53 53 52 51 50 47 47 47 46 45 43 39 38 37 35 34 34 34 33 33 32
38 38 39 39 39 39 38 38 38 38 38 39 39 40 41 42 42 43 44 44 45 46 46 47 47 46 46 47 48 47 45 44 44 42 39 37 39 40 39 35 32 32 30 26 28 29 27 25 22 20 20 20 22 24 27 30 35 42 47 48 47 48 49 50 51 52 53 54 54 51 49 49 48 47 46 44 40 38 37 35 35 35 35 35 35
39 40 40 40 40 41 40 40 40 40 39 40 40 40 41 42 43 43 44 45 45 46 47 48 48 47 47 48 49 49 48 47 46 46 44 41 41 43 42 40 38 37 33 29 30 31 31 31 27 23 22 21 22 24 26 28 32 37 43 47 49 49 49 49 49 49 52 55 56 55 51 50 51 50 48 47 44 41 39 37 36 36 35 34 34
41 41 41 41 42 42 43 43 43 42 42 42 42 42 42 42 43 44 44 45 46 46 47 48 49 49 49 49 50 51 50 50 49 49 48 46 45 45 45 43 42 40 36 33 33 32 33 33 30 27 25 23 23 24 25 28 30 33 37 41 46 49 51 51 50 49 51 53 56 55 52 51 51 50 48 47 46 44 42 41 40 41 40 38 37
42 42 42 42 43 43 44 44 45 45 44 44 44 44 44 43 43 44 45 46 46 47 48 49 50 51 51 51 51 52 52 52 52 52 51 50 48 49 47 45 45 43 39 36 36 35 36 36 33 31 29 26 26 26 27 29 29 29 32 37 41 45 48 50 51 51 51 52 54 54 53 51 49 48 47 47 47 46 45 44 44 45 46 45 42
43 44 44 44 45 45 45 46 46 46 47 47 46 46 46 46 45 45 45 46 47 48 49 49 50 51 52 52 52 53 54 53 54 55 55 53 50 50 50 48 47 47 44 40 39 39 38 38 37 35 33 31 30 30 31 31 29 28 30 34 37 41 45 48 50 50 49 50 51 53 52 52 50 49 47 47 47 47 47 46 45 45 45 45 43
45 45 46 46 46 47 47 47 47 48 48 48 48 48 47 47 47 47 47 47 48 49 50 51 51 52 53 54 54 54 55 56 56 56 58 58 55 50 51 52 51 50 49 47 44 43 41 41 41 40 38 36 34 34 34 33 32 31 31 32 34 39 43 45 47 48 48 48 49 51 52 52 53 52 51 50 49 48 48 48 47 46 45 44 44
47 47 47 48 48 49 49 49 49 49 49 50 50 49 49 49 49 49 49 49 49 50 51 52 52 53 53 54 55 56 56 57 58 58 58 60 60 56 51 52 54 53 52 51 49 47 45 44 43 42 42 41 39 38 37 35 35 35 35 35 35 37 39 40 43 46 47 48 49 50 50 51 52 52 53 53 52 51 50 50 49 48 47 46 45
50 50 50 50 50 50 51 51 51 51 51 51 51 51 51 51 50 51 51 51 51 51 52 53 53 54 55 55 56 57 58 58 60 61 60 60 62 62 57 53 54 56 55 53 52 52 51 50 47 44 44 44 43 41 39 39 40 41 40 39 38 37 36 37 40 42 44 46 47 47 48 49 49 50 51 53 53 52 52 51 51 50 49 47 45
51 51 52 52 53 53 53 53 53 54 54 54 54 53 53 52 52 52 53 53 53 53 53 54 54 55 56 57 57 58 59 59 60 62 63 62 61 63 64 59 55 56 57 56 55 54 54 54 53 50 48 47 45 43 43 44 46 48 46 42 40 39 36 35 36 37 39 42 43 44 46 46 46 47 48 50 50 50 51 50 50 49 48 47 45
52 52 52 53 54 54 55 55 55 56 56 56 56 56 56 55 54 54 55 55 55 55 56 55 56 56 57 58 59 59 60 60 61 63 65 65 63 63 65 65 61 57 58 59 58 57 56 55 54 54 53 51 50 47 45 47 50 53 50 45 44 43 40 37 36 35 35 37 38 40 42 42 43 44 46 47 47 48 48 47 47 47 47 46 46
53 53 53 53 54 54 55 56 57 57 58 59 59 60 60 59 58 58 57 57 58 58 58 58 57 58 58 59 59 60 61 62 63 64 65 67 67 65 65 66 66 62 60 60 60 60 59 58 57 56 55 54 54 52 50 50 52 53 51 47 47 47 44 41 38 36 36 35 35 35 37 38 39 41 42 44 45 45 46 45 45 45 46 46 46
53 53 53 53 53 53 54 55 56 57 58 60 61 62 63 63 62 62 61 61 61 60 60 60 60 60 60 60 60 61 62 63 64 64 66 67 69 69 67 67 68 67 65 62 61 61 62 62 60 59 58 56 56 56 55 54 54 53 51 50 51 51 49 45 41 38 37 36 35 35 35 36 37 38 39 41 42 43 44 44 45 45 45 46 46
Wind_Direction
288 290 292 294 296 296 297 300 300 301 301 301 301 301 301 300 300 300 298 296 295 295 296 298 298 297 295 292 290 289 288 288 288 289 288 288 287 287 287 287 287 287 286 285 284 285 286 284 281 279 275 269 265 258 246 236 225 218 215 213 206 198 197 194 187 182 177 173 173 174 175 177 177 177 184 221 240 235 224 213 202 187 171 160 151
288 290 292 295 296 295 297 298 299 300 301 301 300 300 300 299 298 298 297 295 294 294 295 296 295 295 293 292 290 288 288 289 289 288 287 286 286 286 286 286 286 286 285 284 284 284 283 280 278 274 268 258 256 250 239 231 221 214 210 207 201 196 198 195 188 184 180 176 177 178 178 182 183 186 192 214 230 232 227 222 213 204 197 189 181
288 290 292 294 295 296 297 298 300 301 301 300 299 299 299 298 297 296 296 294 293 293 293 293 293 293 292 292 290 289 289 290 289 287 286 285 285 285 284 284 285 284 283 283 283 283 279 275 273 267 259 251 250 241 232 227 216 210 207 203 198 197 199 196 190 186 183 180 180 181 182 185 188 191 196 210 222 226 226 225 220 214 212 213 212
289 290 291 293 294 295 296 298 299 300 299 299 299 298 297 296 296 295 295 294 294 292 291 291 291 291 291 292 292 290 290 291 290 288 286 285 284 283 283 283 283 282 282 281 279 278 273 271 267 258 250 248 246 232 228 221 212 207 205 202 197 199 201 198 195 192 187 184 182 183 187 188 191 198 200 211 217 221 224 226 225 222 222 226 231
290 290 291 292 293 294 295 297 298 298 298 298 298 297 296 295 295 294 294 295 294 290 289 290 289 288 289 291 292 291 291 291 291 289 286 284 283 282 282 282 281 280 280 278 274 272 267 265 258 247 243 244 242 226 222 217 211 207 204 203 198 200 203 203 202 200 193 188 187 188 193 191 192 201 205 214 217 218 221 225 228 229 231 235 241
290 291 292 293 294 295 296 297 297 298 298 298 296 295 294 293 293 293 294 294 293 290 288 289 288 287 287 290 290 290 291 291 291 288 285 284 283 282 281 280 279 278 276 274 270 267 262 257 242 232 240 241 239 223 215 213 208 205 204 204 200 203 206 208 209 206 200 194 193 195 197 194 195 203 210 217 220 220 220 223 227 233 238 243 248
291 292 293 294 294 295 296 297 298 298 297 296 294 293 292 291 290 291 292 292 292 289 287 287 287 286 287 286 287 289 290 290 288 285 284 285 284 283 281 279 277 275 273 269 266 264 257 251 228 219 234 237 234 218 210 209 205 207 207 209 206 205 208 210 213 209 205 202 199 201 201 198 198 205 214 220 224 224 223 223 227 233 240 246 252
292 293 294 294 294 294 295 297 297 297 296 294 292 290 289 288 288 288 289 289 288 287 286 284 283 285 285 284 286 288 288 288 286 284 284 285 285 282 279 276 273 271 270 266 263 261 252 244 221 214 229 232 229 214 206 204 208 218 212 214 214 209 211 212 215 213 211 210 208 207 204 200 199 206 215 222 225 228 228 226 228 233 240 247 254
292 293 293 293 293 294 296 296 296 295 293 291 289 287 286 286 285 285 285 285 285 285 284 281 281 285 285 284 285 287 287 287 286 285 285 286 284 281 276 273 270 268 267 264 261 256 247 236 216 212 223 226 224 213 204 200 213 226 216 216 220 216 215 215 216 216 219 221 216 212 210 206 202 206 216 224 226 228 231 231 233 236 242 249 256
291 292 293 293 293 294 295 295 295 292 289 287 287 286 285 284 284 283 283 282 282 284 283 281 282 286 286 284 284 285 286 285 285 286 286 285 282 277 273 270 267 266 264 263 258 252 244 227 209 212 221 221 221 214 206 201 209 222 220 216 217 220 218 216 218 219 226 229 223 219 217 214 208 208 215 225 229 229 231 234 238 242 246 251 258
291 292 292 292 293 294 295 295 293 289 286 287 288 287 286 284 283 281 280 281 282 283 283 281 283 285 285 283 283 283 283 283 284 284 284 283 278 273 269 267 264 263 262 259 256 250 239 218 206 214 219 219 220 215 209 204 205 216 219 216 217 223 221 218 221 225 230 231 228 225 223 221 215 213 216 224 230 232 233 234 240 246 251 255 260
290 291 292 292 292 293 294 293 289 285 285 287 290 289 286 284 281 277 277 279 280 281 280 281 283 284 284 282 282 282 282 282 282 281 281 279 273 269 265 263 260 259 258 257 255 246 231 210 206 213 215 217 219 215 212 206 207 217 216 215 223 227 225 221 223 230 232 230 231 231 229 227 224 220 220 224 230 234 236 237 241 248 255 261 264
290 290 291 291 291 292 291 288 283 281 280 279 279 278 280 282 279 276 274 275 277 278 277 279 281 283 283 282 282 282 281 280 279 278 277 274 269 265 261 258 255 255 256 256 251 240 225 207 205 210 209 213 218 216 213 208 213 227 218 214 223 226 227 224 224 232 233 231 231 234 235 234 232 228 226 228 232 235 238 242 245 251 259 265 270
289 289 289 289 289 290 288 283 278 276 274 271 265 264 271 275 274 273 272 273 275 274 275 277 281 283 283 283 284 283 281 278 276 275 272 268 265 260 256 254 252 252 253 253 247 237 221 205 203 206 206 209 216 217 212 208 219 235 225 217 221 225 228 226 225 233 237 236 233 235 239 240 240 236 233 233 235 238 242 247 249 253 259 264 272
288 288 288 287 287 286 282 277 273 269 267 265 259 258 261 264 267 271 271 270 271 270 273 277 281 284 283 286 287 285 281 276 273 270 267 263 259 255 252 251 250 251 251 249 243 234 217 203 202 203 205 207 211 215 210 209 224 232 225 220 225 228 228 228 227 234 240 238 234 236 241 246 247 243 239 238 240 242 245 251 254 255 259 265 273
287 286 286 285 285 283 278 273 268 257 251 251 251 253 254 257 262 267 268 265 265 270 275 279 281 281 283 289 289 284 279 274 270 265 262 258 253 251 251 250 248 249 248 245 239 230 213 202 202 203 204 206 206 212 213 213 221 224 222 223 227 230 229 228 228 232 239 237 236 241 246 248 248 246 244 245 246 248 250 254 258 260 264 272 276
285 284 284 283 282 279 274 269 262 249 241 239 239 242 245 251 256 259 262 263 267 272 276 278 278 279 283 289 285 278 274 270 265 260 256 253 251 250 250 249 246 245 243 240 235 225 211 202 203 204 204 206 206 213 219 216 215 216 221 224 226 229 229 228 227 231 237 239 242 245 247 247 247 248 248 251 252 253 255 257 260 263 270 277 280
282 282 281 280 279 276 271 266 259 250 244 239 233 233 238 245 250 251 257 265 269 271 274 276 276 280 283 282 279 274 269 263 259 256 254 251 251 251 250 247 243 243 240 236 232 223 211 203 204 206 204 206 210 216 221 218 215 213 218 225 228 231 231 229 227 231 238 240 244 246 246 247 249 250 252 256 256 255 256 258 260 263 270 277 281
280 280 279 278 276 273 269 264 257 250 245 241 235 232 237 243 247 251 258 264 266 267 271 273 276 282 278 273 277 273 262 257 255 253 252 250 249 250 248 245 242 241 238 234 231 222 210 204 205 206 204 206 212 219 221 218 216 215 218 227 233 234 233 230 228 231 236 239 244 246 247 248 250 251 253 257 259 259 258 258 260 264 269 275 281
278 277 276 275 273 270 267 263 257 250 244 240 236 234 238 243 247 252 260 264 265 266 268 271 276 278 270 269 274 270 261 257 253 249 248 246 245 245 243 242 243 241 238 233 229 222 210 205 207 208 206 207 212 221 224 219 217 218 219 226 235 236 232 231 231 231 233 238 244 249 248 248 249 250 254 257 260 262 262 260 261 264 269 275 282
275 274 273 272 270 268 265 262 256 251 245 240 237 236 238 242 246 252 258 262 264 265 266 268 270 269 266 267 271 270 264 256 252 249 245 243 241 241 241 241 241 239 236 232 229 223 213 207 208 210 209 208 211 219 226 222 218 220 220 226 234 236 233 231 231 231 233 238 243 248 249 250 251 252 258 261 262 264 266 265 265 266 270 278 284
271 270 270 269 268 266 264 261 257 252 247 241 238 237 237 240 244 249 252 256 261 263 263 262 261 262 263 264 267 269 262 251 250 251 246 243 239 238 240 239 239 238 235 232 230 227 219 211 208 211 212 212 214 218 226 226 221 221 223 226 232 236 235 232 232 231 232 237 241 246 250 254 256 258 262 263 263 265 267 270 271 272 276 281 285
268 267 266 265 265 264 263 261 257 252 248 243 239 237 237 239 242 245 247 251 255 257 258 257 257 259 259 260 264 267 258 247 247 252 250 244 239 237 237 237 238 239 238 235 233 229 224 215 209 211 215 217 219 217 222 227 224 222 225 227 232 239 237 233 233 234 235 237 241 245 249 254 256 259 263 265 267 269 272 274 277 279 281 283 285
266 264 263 262 261 260 260 259 257 253 249 245 240 238 237 237 240 242 244 246 247 247 251 253 253 253 253 256 261 264 254 242 244 250 250 246 241 239 237 236 235 239 242 239 237 231 225 219 211 212 216 219 219 215 216 226 227 223 224 226 230 239 241 237 234 235 237 238 241 245 248 251 252 255 263 268 271 274 277 278 280 283 286 288 290
264 263 260 259 258 257 256 256 255 253 249 245 241 238 237 236 237 240 241 242 240 238 243 249 248 247 248 252 256 257 249 239 241 245 247 247 244 242 240 238 235 236 241 241 239 234 227 221 215 213 217 218 216 212 213 223 229 225 222 226 229 234 241 240 238 238 237 237 240 243 247 250 251 253 259 264 268 272 275 278 283 287 291 294 296
262 261 259 257 255 254 253 252 251 250 248 245 242 239 237 235 235 237 238 238 236 233 236 244 246 246 246 248 250 250 244 239 239 243 246 247 245 244 242 240 236 235 238 239 239 236 230 225 218 215 217 219 214 211 213 218 227 227 224 227 230 232 236 239 241 241 240 240 240 240 243 250 252 253 257 260 264 267 269 275 285 292 295 296 296
260 258 256 255 253 252 250 249 248 247 246 243 241 238 236 234 233 233 235 235 233 230 230 238 247 249 245 243 245 246 242 238 239 242 244 246 246 244 242 240 237 236 238 238 238 237 233 228 222 218 218 220 216 212 212 215 223 228 226 228 230 230 230 233 239 242 244 245 244 241 242 248 253 254 258 261 264 267 268 272 280 287 290 292 297
256 254 252 251 250 249 247 245 244 243 242 241 239 237 235 233 230 230 231 232 232 231 230 234 242 248 244 237 239 244 240 235 236 240 243 246 246 244 242 239 237 238 239 238 238 239 236 232 227 221 219 221 219 214 212 214 220 226 226 227 229 231 229 227 232 237 241 245 246 245 245 249 252 253 258 262 266 270 273 275 277 280 280 284 297
252 250 248 247 247 246 244 242 240 239 238 238 236 234 232 229 228 228 229 231 232 232 232 232 235 238 240 235 235 240 236 230 232 237 242 245 246 243 239 236 236 237 238 239 238 239 239 236 232 225 221 221 222 219 216 216 218 223 226 227 228 231 232 230 230 233 236 241 246 249 250 252 252 253 256 260 265 270 274 278 279 279 277 278 288
249 247 245 244 244 243 242 240 237 235 234 233 231 229 228 226 226 226 228 231 232 233 232 230 230 230 234 234 230 234 231 225 229 234 237 242 245 243 238 235 234 235 236 237 238 239 239 238 236 231 224 222 223 223 221 220 218 221 225 228 228 229 233 235 233 234 236 239 243 249 253 255 254 252 253 257 262 266 270 276 280 282 282 280 281
246 245 244 242 241 241 240 238 235 232 231 229 228 226 224 224 225 226 228 230 232 234 232 229 228 225 228 230 228 230 224 216 222 228 230 236 241 242 240 237 236 236 236 235 236 237 238 238 236 234 229 223 222 224 225 224 220 219 223 227 229 228 231 236 236 236 238 239 240 242 249 255 254 252 252 257 260 262 266 272 279 284 287 286 281
244 243 242 241 239 238 237 236 234 230 228 226 225 224 223 223 225 227 229 230 231 232 229 225 226 220 217 221 224 226 219 213 218 223 229 235 239 243 242 241 240 240 239 237 236 235 236 236 235 234 232 226 222 223 226 226 222 219 222 226 228 229 230 234 238 239 239 240 241 240 243 250 251 251 255 261 262 262 264 270 276 281 286 289 284
243 242 242 240 238 237 236 235 233 230 226 224 224 223 223 225 226 228 230 231 232 232 226 222 223 213 207 212 219 223 217 213 215 220 231 237 239 243 243 244 242 241 240 239 237 235 234 233 234 234 232 228 224 223 226 227 224 221 222 225 228 231 231 232 237 241 242 241 242 243 245 249 249 249 254 260 263 264 266 271 274 277 282 288 288
244 243 242 240 238 236 235 234 233 230 226 224 223 223 224 225 228 230 230 231 232 233 227 222 221 209 204 209 215 220 218 214 214 218 228 235 237 240 242 245 245 240 237 237 236 236 235 233 232 232 232 230 226 226 227 228 227 224 224 226 228 231 233 232 233 239 243 242 243 245 248 251 251 251 254 257 259 261 264 267 271 274 278 283 287
247 244 241 239 238 236 234 232 232 232 230 226 224 224 225 226 228 230 231 231 231 232 229 226 224 213 205 210 214 218 219 218 215 217 223 227 230 233 237 242 243 241 237 234 234 235 237 235 232 231 232 231 228 228 229 230 229 227 227 228 229 232 233 233 233 235 240 243 243 244 247 250 252 253 254 255 257 259 262 265 270 274 276 277 281
249 247 244 240 238 236 234 233 231 232 232 231 228 226 226 227 228 230 231 232 230 230 229 229 230 222 209 210 214 217 219 219 215 215 219 221 222 225 229 236 238 238 237 234 233 233 236 236 234 232 233 232 230 229 229 231 232 231 230 230 232 234 235 236 236 236 239 242 243 242 244 246 249 253 254 255 259 262 264 266 270 272 272 272 275
248 248 247 244 239 237 235 234 232 232 232 232 232 230 228 228 229 230 231 232 231 229 228 230 232 228 217 211 211 214 217 218 215 214 219 221 221 222 224 229 234 237 239 239 237 237 237 238 237 233 232 233 232 230 231 231 233 234 233 232 234 236 237 238 239 240 241 243 244 243 243 244 246 250 253 254 256 259 263 264 265 266 267 268 272
247 247 248 248 244 241 238 236 234 233 232 231 232 233 232 230 230 231 231 232 232 230 228 229 231 230 225 219 213 211 214 216 214 214 219 223 222 221 220 221 226 232 236 240 240 240 240 241 241 238 234 233 233 232 232 232 233 235 236 235 235 237 238 239 240 242 243 244 244 244 244 244 245 247 251 253 252 253 258 261 261 263 264 266 271
249 248 247 248 247 245 243 240 238 236 235 233 232 232 233 232 232 232 232 232 233 232 229 229 230 230 229 227 222 216 213 212 213 215 219 224 224 222 219 217 221 228 231 236 240 240 242 244 246 246 242 238 236 233 232 233 233 234 237 239 239 239 240 240 240 241 243 244 244 244 245 245 246 248 250 253 253 250 253 259 260 261 263 264 269
249 248 248 248 248 248 247 245 243 241 239 238 236 234 232 232 233 233 233 233 234 233 232 230 230 230 229 229 228 224 218 214 213 214 217 221 225 224 220 216 219 226 227 230 235 237 243 248 250 251 250 247 244 239 235 233 234 234 236 239 242 243 243 243 243 242 242 243 243 243 245 247 248 249 250 253 254 252 252 257 260 261 262 265 268
249 248 248 248 249 249 249 247 246 244 242 242 241 239 236 233 232 233 233 233 234 234 233 232 231 231 229 229 230 228 225 221 218 217 216 218 223 226 224 218 217 220 221 225 230 232 239 245 249 251 250 251 253 252 246 239 235 235 235 237 241 244 246 248 248 247 245 244 243 243 245 247 248 250 251 252 254 255 255 258 261 261 263 266 268
250 249 248 248 248 248 248 248 248 247 245 243 243 242 241 238 235 233 232 233 233 233 233 233 231 231 230 229 229 230 228 226 223 221 219 220 223 226 227 223 220 219 216 219 226 229 232 237 243 246 246 249 254 257 258 253 245 240 239 238 240 242 245 249 251 252 250 246 244 244 246 247 247 249 250 252 254 256 257 259 262 263 264 267 270
250 250 249 249 248 248 248 248 248 248 247 246 245 244 242 241 238 235 234 233 233 233 233 233 232 231 231 229 228 229 229 228 226 224 222 223 225 228 229 227 224 222 217 216 221 226 231 233 236 241 243 245 249 253 258 260 257 253 248 243 243 243 245 247 250 251 252 250 247 246 248 247 246 248 250 252 254 256 258 261 263 264 265 268 271
251 251 250 249 249 249 248 248 247 247 247 247 246 245 244 243 241 238 236 234 234 234 233 233 233 232 231 230 228 228 228 228 228 226 224 224 224 225 228 229 226 225 224 220 218 222 229 232 234 239 241 241 244 248 252 254 258 260 258 252 249 247 247 248 249 250 252 252 251 250 250 248 246 248 250 252 254 257 259 262 265 266 267 269 270
252 252 251 250 250 249 249 248 248 247 247 247 247 246 245 245 243 241 239 236 235 235 234 234 233 232 232 231 230 229 227 227 228 228 226 225 225 223 224 226 227 228 228 227 223 220 224 229 232 235 238 239 240 244 248 250 252 256 259 261 257 251 248 249 250 251 252 253 253 252 252 250 250 251 251 253 255 257 259 262 265 268 269 271 272
252 252 252 251 251 250 250 249 249 248 248 247 247 246 245 245 245 244 243 240 237 236 236 235 234 233 232 232 231 230 229 227 227 229 228 227 227 226 223 222 225 227 229 231 229 225 224 227 227 228 231 234 237 241 246 250 254 255 257 258 258 254 250 250 250 250 251 252 252 252 253 253 254 254 254 254 255 256 259 262 265 267 270 272 273
253 252 252 251 251 250 250 250 250 250 249 248 248 247 246 245 245 245 245 244 241 239 238 237 236 235 233 233 232 232 230 229 227 228 229 229 227 228 227 224 222 224 227 229 231 230 230 232 231 229 229 231 233 236 241 249 255 258 256 254 254 254 252 251 251 251 251 251 252 253 253 254 255 256 256 257 257 258 259 261 264 266 268 270 271
254 253 252 251 251 250 250 250 250 250 250 250 249 249 247 246 245 245 245 245 244 243 241 239 238 237 235 234 233 232 232 231 229 228 229 230 229 228 229 228 224 222 223 226 228 230 232 234 235 234 232 232 230 231 239 248 254 256 254 253 252 251 249 249 251 252 252 251 252 253 254 255 255 255 257 258 259 260 261 262 263 264 265 267 268
255 254 253 252 250 250 249 249 249 249 249 249 250 250 249 248 247 246 245 245 245 245 244 242 240 239 238 236 234 233 233 232 231 229 229 230 231 229 229 229 228 223 221 223 225 227 230 231 233 233 233 234 232 231 238 247 250 252 251 250 251 249 246 245 247 250 251 252 253 254 255 256 257 257 257 259 260 262 262 263 263 263 263 265 267
256 255 254 252 251 250 250 249 249 249 249 249 249 249 249 249 249 248 247 246 246 245 245 244 243 241 240 238 237 235 234 233 232 231 230 230 232 232 230 230 230 227 223 222 223 224 227 229 230 231 232 235 236 234 237 241 244 246 246 247 249 249 247 246 244 244 246 250 254 256 259 261 261 261 260 260 260 261 262 263 263 263 263 264 266
257 256 254 253 252 251 250 250 250 250 250 249 249 249 249 249 249 249 249 248 248 247 246 245 245 244 242 241 239 238 236 234 233 232 232 231 232 233 232 231 231 230 227 224 224 223 224 226 229 230 231 233 235 235 236 238 239 239 240 244 247 248 248 247 245 242 241 245 249 255 262 265 267 267 264 262 261 260 261 261 262 263 263 264 266
Height
10914 10911 10906 10908 10907 10902 10901 10902 10900 10899 10899 10897 10895 10892 10890 10887 10885 10884 10884 10882 10880 10878 10876 10874 10874 10873 10870 10867 10865 10864 10863 10862 10860 10859 10858 10858 10857 10855 10855 10856 10857 10857 10856 10855 10855 10856 10855 10854 10853 10853 10854 10855 10857 10859 10861 10862 10863 10863 10863 10864 10865 10866 10866 10865 10866 10866 10866 10867 10867 10867 10867 10868 10868 10868 10869 10869 10871 10871 10872 10872 10871 10871 10870 10869 10868
10908 10907 10905 10904 10899 10896 10897 10896 10895 10895 10893 10890 10887 10885 10883 10880 10879 10878 10877 10875 10873 10871 10869 10868 10869 10867 10864 10861 10860 10859 10858 10857 10856 10855 10854 10853 10852 10851 10850 10851 10853 10852 10852 10851 10851 10852 10852 10851 10850 10851 10852 10853 10855 10857 10859 10860 10861 10861 10861 10863 10864 10864 10864 10864 10864 10864 10865 10865 10866 10866 10866 10866 10866 10867 10867 10868 10869 10870 10870 10870 10870 10870 10869 10868 10867
10901 10903 10906 10904 10895 10891 10891 10889 10890 10890 10887 10883 10880 10877 10875 10873 10872 10871 10871 10870 10867 10865 10863 10863 10863 10861 10858 10856 10855 10854 10853 10853 10852 10850 10849 10848 10847 10847 10846 10847 10848 10848 10847 10848 10847 10848 10849 10848 10848 10848 10849 10851 10853 10855 10857 10858 10859 10859 10860 10861 10862 10862 10862 10863 10863 10863 10863 10863 10864 10864 10864 10864 10865 10866 10866 10866 10867 10868 10869 10869 10869 10868 10868 10867 10866
10894 10896 10903 10905 10897 10889 10887 10885 10885 10885 10881 10877 10873 10870 10868 10866 10865 10865 10865 10865 10863 10859 10857 10858 10857 10855 10853 10851 10850 10850 10849 10849 10848 10846 10845 10843 10842 10842 10842 10843 10843 10843 10843 10844 10844 10845 10846 10845 10845 10845 10847 10849 10851 10853 10855 10856 10857 10857 10858 10859 10860 10861 10861 10862 10862 10862 10862 10862 10862 10863 10863 10863 10863 10864 10865 10865 10866 10866 10867 10867 10867 10867 10866 10866 10865
10887 10889 10896 10900 10894 10886 10884 10884 10881 10878 10875 10870 10866 10863 10861 10859 10858 10859 10859 10860 10859 10853 10851 10853 10852 10850 10849 10847 10846 10846 10845 10844 10843 10842 10840 10838 10838 10838 10838 10838 10839 10840 10840 10840 10841 10842 10843 10842 10843 10843 10845 10847 10849 10851 10853 10855 10855 10855 10856 10857 10859 10859 10860 10861 10861 10861 10861 10861 10861 10861 10862 10862 10862 10863 10864 10864 10864 10865 10865 10866 10866 10866 10865 10865 10865
10881 10883 10888 10890 10885 10880 10879 10878 10875 10872 10868 10863 10859 10856 10854 10852 10851 10852 10853 10854 10854 10851 10845 10845 10846 10845 10844 10844 10843 10842 10841 10840 10839 10837 10835 10834 10833 10834 10834 10834 10835 10835 10836 10837 10838 10839 10840 10840 10841 10842 10843 10844 10847 10849 10851 10853 10853 10854 10855 10856 10857 10858 10859 10859 10860 10861 10861 10861 10860 10860 10861 10861 10861 10862 10862 10863 10863 10863 10864 10864 10865 10865 10865 10864 10864
10875 10877 10880 10881 10877 10874 10873 10871 10868 10865 10861 10856 10852 10848 10846 10845 10844 10845 10847 10847 10848 10847 10843 10838 10838 10840 10841 10840 10839 10838 10837 10836 10834 10832 10831 10830 10829 10830 10830 10830 10830 10831 10832 10834 10835 10836 10837 10837 10839 10840 10841 10842 10845 10847 10849 10851 10852 10853 10854 10855 10856 10857 10857 10858 10859 10860 10860 10860 10860 10859 10860 10860 10860 10861 10861 10862 10862 10862 10862 10863 10863 10864 10864 10863 10863
10869 10871 10873 10873 10869 10868 10868 10867 10863 10859 10854 10849 10845 10841 10839 10838 10838 10838 10840 10841 10841 10842 10840 10836 10834 10835 10837 10836 10836 10834 10832 10832 10830 10828 10826 10826 10826 10826 10826 10826 10826 10827 10829 10830 10832 10833 10833 10834 10836 10838 10839 10840 10843 10845 10848 10849 10850 10852 10852 10854 10855 10856 10856 10857 10858 10859 10859 10859 10859 10859 10859 10859 10859 10860 10860 10860 10861 10861 10861 10862 10862 10862 10863 10863 10863
10862 10865 10867 10866 10862 10862 10863 10862 10859 10854 10849 10843 10838 10835 10833 10832 10831 10831 10833 10834 10835 10836 10836 10834 10831 10832 10834 10832 10831 10829 10827 10827 10825 10823 10822 10822 10822 10822 10822 10822 10823 10823 10825 10826 10828 10829 10830 10831 10833 10835 10836 10838 10841 10843 10846 10847 10849 10850 10851 10852 10854 10854 10855 10855 10856 10857 10858 10858 10859 10858 10858 10858 10858 10858 10859 10859 10859 10860 10860 10861 10861 10862 10862 10862 10862
10855 10858 10860 10860 10856 10856 10858 10857 10854 10849 10842 10837 10833 10830 10827 10825 10824 10825 10826 10827 10828 10829 10830 10829 10827 10827 10828 10827 10826 10824 10822 10822 10820 10819 10818 10818 10818 10818 10818 10819 10819 10820 10821 10823 10825 10826 10827 10828 10830 10832 10833 10836 10839 10841 10843 10845 10846 10848 10850 10851 10852 10852 10853 10854 10855 10856 10857 10857 10858 10858 10858 10857 10858 10858 10858 10858 10858 10859 10860 10860 10861 10861 10862 10862 10862
10849 10851 10852 10852 10851 10851 10853 10853 10849 10842 10836 10833 10830 10825 10820 10817 10816 10818 10820 10821 10821 10822 10822 10822 10821 10822 10822 10820 10820 10819 10817 10817 10816 10814 10814 10814 10814 10814 10814 10815 10815 10816 10817 10819 10821 10823 10824 10825 10828 10829 10831 10834 10837 10839 10841 10843 10844 10846 10847 10849 10850 10851 10851 10852 10853 10854 10855 10856 10856 10857 10857 10857 10857 10857 10857 10858 10858 10859 10859 10860 10861 10861 10861 10861 10861
10842 10844 10844 10844 10844 10845 10847 10848 10843 10836 10832 10830 10827 10821 10814 10810 10810 10811 10813 10814 10815 10815 10815 10815 10814 10816 10816 10814 10814 10814 10813 10812 10810 10810 10809 10809 10809 10810 10811 10811 10812 10812 10814 10816 10818 10820 10821 10823 10825 10827 10829 10832 10834 10836 10839 10841 10842 10843 10845 10846 10847 10849 10849 10850 10851 10852 10853 10854 10855 10856 10856 10856 10857 10857 10857 10857 10858 10858 10859 10860 10860 10861 10861 10861 10861
10835 10837 10837 10836 10837 10840 10842 10841 10838 10832 10829 10828 10824 10817 10809 10806 10806 10806 10807 10808 10809 10809 10809 10809 10809 10810 10810 10808 10809 10809 10808 10807 10805 10805 10805 10805 10805 10806 10807 10808 10808 10809 10810 10813 10815 10817 10818 10820 10822 10824 10827 10830 10831 10833 10836 10838 10840 10842 10843 10843 10845 10846 10847 10848 10849 10850 10851 10852 10853 10854 10855 10856 10856 10856 10857 10857 10857 10858 10858 10859 10860 10860 10860 10861 10861
10828 10830 10830 10829 10831 10834 10836 10835 10833 10827 10826 10828 10823 10816 10808 10803 10801 10801 10802 10803 10804 10804 10805 10805 10804 10806 10806 10804 10804 10805 10803 10802 10801 10801 10801 10801 10802 10802 10803 10804 10805 10806 10807 10809 10812 10814 10816 10817 10819 10822 10825 10827 10829 10830 10833 10836 10837 10839 10841 10841 10842 10844 10846 10847 10848 10848 10849 10851 10852 10853 10854 10855 10855 10856 10856 10856 10857 10857 10858 10858 10859 10859 10860 10860 10860
10820 10821 10822 10823 10824 10827 10830 10828 10827 10824 10823 10825 10821 10814 10807 10799 10797 10798 10798 10799 10800 10801 10801 10802 10801 10802 10803 10801 10799 10799 10798 10797 10797 10797 10797 10797 10798 10799 10799 10800 10801 10803 10804 10806 10808 10811 10813 10814 10816 10819 10822 10824 10827 10829 10831 10833 10835 10837 10838 10840 10841 10842 10844 10845 10846 10847 10848 10849 10851 10852 10853 10854 10854 10854 10855 10855 10855 10856 10857 10858 10858 10859 10859 10859 10859
10812 10813 10813 10815 10817 10820 10822 10821 10822 10821 10818 10819 10814 10808 10803 10796 10795 10795 10794 10795 10797 10797 10797 10798 10798 10799 10800 10798 10795 10795 10794 10793 10793 10793 10793 10794 10795 10796 10796 10797 10798 10799 10801 10803 10805 10808 10810 10811 10813 10816 10819 10822 10824 10827 10828 10830 10832 10834 10836 10837 10839 10841 10843 10844 10845 10846 10847 10848 10849 10850 10851 10852 10852 10853 10853 10853 10854 10855 10856 10857 10858 10858 10858 10858 10858
10804 10804 10805 10807 10809 10813 10815 10814 10814 10812 10810 10810 10804 10799 10798 10794 10792 10790 10789 10790 10792 10792 10793 10794 10794 10795 10797 10795 10793 10791 10790 10790 10790 10789 10790 10791 10792 10793 10794 10795 10795 10796 10798 10800 10802 10805 10807 10808 10810 10813 10816 10819 10822 10824 10826 10828 10830 10831 10834 10836 10837 10840 10841 10843 10844 10845 10846 10847 10848 10848 10849 10850 10850 10851 10851 10852 10853 10854 10855 10856 10856 10857 10857 10857 10857
10795 10796 10797 10798 10800 10805 10807 10807 10807 10804 10802 10801 10797 10794 10793 10792 10789 10786 10785 10786 10787 10787 10789 10791 10791 10792 10793 10793 10791 10789 10787 10787 10787 10786 10787 10788 10789 10790 10792 10792 10792 10794 10795 10797 10799 10802 10804 10805 10807 10810 10813 10816 10819 10821 10823 10825 10828 10829 10831 10834 10836 10838 10840 10842 10842 10843 10844 10845 10846 10846 10847 10847 10848 10849 10849 10850 10851 10852 10853 10854 10855 10855 10856 10856 10855
10787 10787 10789 10790 10792 10795 10798 10800 10799 10798 10796 10795 10793 10791 10790 10789 10787 10783 10781 10781 10783 10785 10787 10788 10789 10789 10790 10790 10789 10787 10785 10785 10785 10784 10785 10786 10787 10788 10789 10790 10790 10791 10793 10795 10797 10799 10801 10802 10804 10807 10811 10814 10817 10819 10821 10823 10826 10828 10829 10831 10834 10837 10839 10840 10841 10841 10842 10843 10843 10844 10844 10845 10846 10846 10848 10849 10850 10851 10852 10852 10853 10854 10854 10854 10854
10780 10779 10780 10782 10784 10786 10789 10791 10792 10791 10789 10789 10789 10788 10787 10786 10784 10780 10778 10778 10780 10783 10785 10786 10786 10787 10787 10787 10787 10785 10783 10783 10783 10783 10783 10784 10785 10786 10787 10787 10788 10790 10791 10793 10795 10797 10798 10800 10802 10805 10808 10811 10815 10817 10819 10822 10824 10826 10827 10829 10832 10835 10837 10838 10839 10840 10840 10841 10841 10842 10842 10843 10844 10845 10846 10848 10849 10849 10850 10851 10851 10852 10853 10853 10853
10773 10773 10773 10773 10775 10777 10780 10782 10784 10784 10783 10783 10783 10783 10783 10783 10781 10778 10777 10777 10779 10781 10782 10783 10784 10784 10784 10784 10784 10783 10782 10782 10781 10781 10781 10782 10784 10784 10785 10786 10786 10788 10789 10791 10792 10794 10796 10797 10799 10802 10805 10809 10813 10815 10817 10819 10822 10824 10826 10827 10830 10832 10834 10836 10837 10838 10839 10839 10840 10840 10840 10841 10842 10844 10845 10846 10847 10848 10849 10849 10850 10851 10852 10852 10852
10768 10767 10767 10766 10767 10768 10770 10774 10776 10776 10777 10778 10778 10778 10779 10779 10778 10777 10776 10777 10777 10778 10779 10780 10780 10781 10781 10781 10781 10781 10780 10780 10779 10779 10780 10781 10782 10782 10783 10783 10784 10785 10787 10788 10790 10791 10793 10795 10797 10799 10802 10806 10810 10813 10814 10816 10819 10821 10823 10825 10827 10830 10832 10834 10835 10836 10837 10837 10838 10838 10839 10840 10841 10843 10844 10845 10846 10847 10847 10848 10849 10850 10850 10851 10851
10762 10762 10761 10760 10760 10760 10761 10764 10767 10769 10770 10772 10774 10774 10774 10775 10775 10773 10774 10775 10776 10776 10775 10776 10777 10777 10778 10778 10778 10778 10778 10779 10778 10778 10778 10779 10780 10780 10780 10781 10782 10783 10785 10786 10787 10788 10790 10792 10794 10796 10799 10803 10807 10810 10812 10814 10817 10819 10821 10823 10825 10827 10829 10831 10833 10834 10835 10836 10836 10837 10838 10839 10840 10842 10843 10844 10844 10845 10846 10847 10848 10849 10849 10849 10849
10754 10755 10755 10755 10754 10753 10753 10755 10758 10760 10763 10766 10768 10768 10769 10770 10770 10770 10771 10772 10773 10773 10772 10772 10773 10774 10775 10775 10776 10775 10775 10777 10777 10776 10777 10777 10778 10777 10778 10779 10780 10781 10782 10784 10785 10786 10788 10789 10791 10793 10795 10799 10803 10807 10809 10811 10814 10816 10818 10820 10823 10825 10827 10829 10830 10832 10833 10834 10835 10836 10837 10838 10839 10840 10841 10842 10843 10844 10845 10846 10846 10847 10847 10848 10848
10746 10747 10748 10748 10748 10748 10748 10748 10750 10752 10755 10758 10761 10762 10763 10765 10765 10765 10766 10768 10769 10769 10768 10769 10769 10770 10772 10772 10773 10773 10773 10774 10774 10774 10774 10775 10775 10776 10776 10776 10777 10779 10780 10781 10783 10784 10785 10787 10789 10790 10793 10796 10800 10803 10806 10809 10811 10813 10816 10818 10820 10822 10824 10826 10828 10830 10831 10832 10833 10834 10835 10836 10838 10839 10839 10840 10842 10843 10844 10844 10845 10845 10846 10846 10846
10740 10740 10741 10742 10742 10742 10742 10743 10744 10746 10748 10751 10754 10756 10757 10759 10760 10760 10761 10762 10764 10765 10764 10765 10765 10766 10768 10769 10770 10770 10771 10771 10771 10771 10771 10773 10774 10774 10774 10774 10775 10776 10777 10779 10780 10782 10783 10785 10786 10788 10790 10793 10797 10800 10803 10806 10808 10811 10813 10815 10817 10819 10821 10824 10826 10828 10829 10831 10832 10833 10834 10835 10836 10837 10838 10839 10841 10842 10842 10843 10843 10844 10844 10844 10844
10734 10734 10735 10735 10736 10736 10737 10737 10738 10740 10742 10745 10748 10750 10752 10754 10755 10755 10756 10757 10758 10759 10760 10761 10761 10762 10764 10766 10767 10767 10768 10768 10768 10768 10769 10770 10771 10771 10772 10772 10773 10773 10774 10776 10778 10779 10781 10782 10784 10786 10787 10790 10794 10797 10800 10804 10806 10808 10810 10812 10814 10816 10818 10821 10823 10825 10827 10829 10830 10831 10832 10833 10834 10835 10836 10837 10839 10840 10841 10841 10842 10842 10843 10843 10843
10728 10728 10729 10729 10730 10731 10731 10732 10734 10735 10737 10740 10742 10745 10747 10749 10750 10750 10751 10752 10753 10754 10756 10758 10758 10759 10760 10763 10764 10765 10766 10766 10766 10766 10767 10768 10769 10769 10769 10770 10770 10771 10772 10774 10775 10777 10778 10779 10781 10783 10785 10787 10790 10794 10797 10800 10803 10805 10807 10809 10811 10814 10815 10818 10820 10822 10824 10826 10828 10829 10830 10831 10833 10834 10835 10836 10837 10838 10839 10839 10840 10841 10841 10842 10842
10721 10722 10724 10724 10725 10725 10727 10728 10730 10731 10733 10735 10738 10740 10742 10743 10744 10745 10746 10747 10748 10749 10752 10754 10755 10755 10756 10759 10761 10762 10763 10765 10765 10765 10765 10766 10766 10767 10767 10768 10768 10769 10770 10771 10773 10774 10775 10777 10778 10780 10782 10784 10787 10790 10794 10797 10800 10802 10805 10807 10808 10811 10813 10815 10817 10819 10821 10823 10825 10827 10828 10829 10831 10832 10833 10834 10835 10836 10836 10837 10838 10838 10839 10840 10840
10715 10717 10718 10720 10720 10721 10722 10724 10725 10727 10729 10731 10733 10735 10736 10738 10738 10740 10741 10742 10743 10746 10749 10751 10752 10752 10753 10756 10758 10759 10761 10763 10764 10764 10764 10764 10764 10764 10764 10765 10766 10767 10768 10769 10770 10771 10773 10774 10776 10778 10780 10782 10784 10787 10790 10793 10797 10799 10802 10804 10806 10808 10811 10813 10815 10816 10818 10820 10822 10824 10826 10827 10828 10830 10831 10832 10833 10833 10834 10835 10835 10836 10837 10837 10838
10710 10711 10713 10715 10716 10717 10718 10719 10721 10723 10724 10726 10728 10730 10731 10732 10733 10734 10736 10738 10739 10742 10745 10747 10748 10750 10751 10753 10755 10756 10758 10760 10762 10763 10763 10763 10762 10762 10762 10763 10764 10765 10766 10767 10767 10769 10770 10772 10773 10775 10777 10779 10781 10784 10787 10789 10793 10796 10799 10801 10803 10805 10808 10811 10812 10814 10816 10817 10819 10821 10822 10824 10826 10827 10828 10829 10830 10831 10831 10832 10833 10834 10835 10835 10835
10706 10706 10708 10710 10712 10713 10714 10715 10717 10719 10721 10723 10724 10725 10727 10728 10729 10730 10732 10734 10736 10738 10741 10743 10745 10747 10748 10750 10752 10753 10755 10756 10758 10759 10760 10761 10760 10760 10760 10761 10763 10763 10764 10765 10765 10767 10768 10769 10771 10772 10774 10776 10779 10781 10784 10786 10789 10793 10795 10798 10800 10802 10805 10808 10810 10811 10813 10815 10816 10818 10819 10821 10822 10824 10826 10827 10828 10828 10829 10830 10831 10832 10832 10832 10833
10701 10702 10704 10706 10708 10709 10711 10712 10713 10715 10717 10719 10720 10721 10723 10724 10725 10726 10728 10730 10732 10734 10737 10740 10742 10744 10744 10746 10748 10750 10751 10753 10754 10756 10756 10757 10758 10758 10759 10759 10761 10762 10762 10763 10764 10765 10766 10767 10769 10770 10772 10774 10777 10779 10781 10783 10786 10789 10792 10795 10798 10800 10802 10805 10807 10809 10811 10813 10814 10815 10816 10817 10819 10820 10822 10824 10825 10825 10826 10827 10828 10829 10830 10830 10830
10697 10698 10700 10702 10704 10706 10707 10708 10709 10711 10713 10715 10716 10717 10719 10720 10721 10722 10724 10726 10728 10730 10733 10736 10739 10741 10741 10743 10745 10746 10748 10750 10752 10753 10754 10755 10755 10756 10757 10758 10759 10759 10760 10761 10762 10763 10764 10765 10766 10768 10770 10772 10774 10776 10778 10780 10783 10786 10789 10792 10794 10796 10798 10801 10804 10807 10809 10810 10811 10812 10813 10814 10815 10817 10819 10820 10822 10823 10824 10825 10826 10826 10827 10828 10828
10693 10694 10696 10697 10699 10701 10703 10705 10706 10707 10709 10710 10712 10713 10715 10716 10717 10718 10720 10722 10724 10727 10729 10731 10734 10738 10739 10740 10742 10742 10744 10747 10749 10751 10751 10752 10752 10754 10755 10757 10757 10757 10758 10759 10760 10761 10762 10763 10764 10766 10767 10769 10772 10774 10775 10778 10780 10783 10786 10788 10790 10792 10795 10798 10801 10804 10806 10808 10809 10810 10811 10812 10812 10814 10816 10817 10818 10820 10821 10822 10823 10824 10824 10825 10825
10688 10689 10690 10693 10695 10696 10698 10700 10702 10703 10705 10706 10708 10709 10711 10712 10713 10714 10716 10718 10720 10723 10725 10727 10729 10733 10735 10737 10739 10740 10742 10744 10746 10747 10747 10748 10749 10750 10752 10754 10755 10755 10756 10757 10757 10758 10759 10760 10762 10764 10765 10766 10769 10771 10773 10775 10777 10780 10783 10785 10787 10789 10792 10795 10798 10801 10803 10805 10806 10807 10808 10809 10810 10811 10813 10815 10816 10817 10818 10819 10820 10821 10821 10822 10823
10684 10684 10685 10688 10690 10692 10694 10696 10698 10699 10701 10702 10703 10705 10706 10708 10709 10710 10712 10714 10716 10719 10721 10723 10725 10728 10731 10733 10735 10737 10739 10740 10742 10743 10744 10744 10745 10747 10749 10750 10751 10753 10754 10754 10755 10756 10757 10758 10759 10761 10762 10764 10765 10767 10770 10772 10774 10777 10780 10782 10784 10787 10790 10792 10795 10798 10800 10802 10803 10804 10805 10807 10808 10809 10811 10812 10814 10815 10815 10816 10817 10818 10818 10819 10820
10679 10680 10681 10683 10685 10687 10689 10691 10693 10695 10696 10698 10699 10701 10702 10704 10705 10706 10708 10709 10712 10714 10717 10719 10721 10723 10726 10728 10731 10733 10735 10737 10738 10739 10739 10740 10742 10743 10744 10746 10748 10750 10752 10753 10753 10753 10754 10756 10757 10758 10760 10761 10762 10764 10767 10769 10771 10774 10776 10779 10781 10783 10786 10789 10792 10795 10797 10798 10799 10801 10802 10804 10805 10807 10808 10810 10811 10812 10813 10813 10814 10815 10815 10816 10817
10675 10677 10677 10678 10680 10683 10685 10687 10688 10690 10691 10693 10695 10697 10698 10700 10701 10702 10704 10706 10707 10710 10712 10715 10717 10719 10722 10724 10726 10728 10730 10732 10733 10734 10736 10737 10738 10739 10740 10742 10745 10747 10748 10750 10750 10751 10752 10753 10754 10755 10757 10759 10760 10762 10763 10766 10768 10771 10773 10775 10777 10780 10782 10785 10788 10790 10792 10794 10796 10797 10799 10800 10802 10804 10806 10807 10809 10810 10811 10811 10811 10812 10812 10813 10814
10671 10672 10673 10674 10676 10678 10680 10682 10684 10685 10687 10688 10690 10692 10693 10695 10697 10699 10700 10702 10703 10705 10708 10710 10713 10715 10717 10719 10720 10723 10725 10727 10728 10730 10732 10733 10733 10734 10737 10739 10741 10742 10744 10746 10747 10748 10749 10750 10752 10753 10754 10756 10757 10759 10760 10762 10765 10767 10769 10771 10774 10776 10778 10781 10783 10786 10788 10790 10792 10794 10795 10797 10799 10801 10802 10804 10806 10807 10808 10809 10809 10809 10809 10809 10810
10667 10668 10669 10670 10672 10673 10675 10677 10678 10680 10682 10683 10685 10686 10688 10690 10693 10694 10696 10698 10699 10701 10703 10706 10708 10710 10712 10713 10715 10717 10720 10721 10723 10725 10727 10729 10729 10730 10733 10735 10736 10737 10740 10742 10743 10745 10747 10748 10749 10750 10751 10753 10754 10756 10758 10759 10761 10763 10765 10767 10770 10772 10774 10776 10779 10781 10784 10785 10787 10790 10793 10794 10795 10797 10799 10801 10802 10804 10805 10806 10806 10806 10805 10806 10807
10662 10663 10665 10666 10667 10668 10670 10671 10673 10675 10677 10678 10679 10681 10683 10685 10687 10689 10691 10693 10695 10696 10698 10700 10703 10704 10706 10708 10710 10712 10714 10716 10718 10720 10722 10724 10725 10727 10729 10732 10733 10733 10736 10738 10741 10743 10745 10745 10746 10747 10748 10750 10751 10752 10754 10756 10758 10760 10761 10764 10766 10768 10770 10771 10774 10776 10778 10780 10782 10786 10789 10791 10792 10793 10795 10797 10799 10800 10801 10802 10802 10802 10802 10803 10804
10657 10658 10660 10661 10662 10663 10664 10666 10668 10669 10671 10672 10674 10675 10677 10680 10682 10684 10686 10688 10690 10691 10693 10695 10697 10699 10700 10702 10705 10707 10709 10711 10713 10714 10717 10719 10721 10723 10725 10728 10730 10730 10732 10735 10737 10740 10741 10741 10742 10744 10745 10747 10748 10749 10751 10752 10754 10756 10758 10760 10761 10763 10765 10767 10769 10770 10772 10775 10779 10782 10785 10787 10788 10790 10792 10793 10794 10796 10797 10798 10798 10798 10799 10800 10801
10652 10653 10654 10655 10656 10658 10659 10660 10662 10663 10665 10666 10668 10670 10672 10674 10676 10678 10680 10682 10684 10685 10687 10689 10691 10693 10695 10697 10699 10701 10703 10705 10707 10709 10711 10714 10716 10718 10720 10723 10725 10727 10729 10731 10733 10735 10736 10738 10739 10741 10742 10744 10745 10746 10747 10749 10751 10753 10755 10756 10757 10759 10760 10762 10763 10765 10768 10771 10774 10778 10781 10783 10784 10786 10788 10789 10790 10791 10793 10794 10794 10795 10795 10796 10797
10646 10647 10649 10650 10651 10652 10653 10655 10656 10657 10659 10660 10662 10664 10666 10668 10670 10672 10674 10676 10678 10680 10681 10683 10685 10688 10690 10691 10693 10695 10697 10699 10701 10702 10705 10707 10710 10712 10714 10717 10720 10723 10725 10727 10728 10729 10731 10732 10734 10736 10738 10740 10741 10742 10743 10745 10747 10749 10751 10753 10754 10755 10755 10757 10759 10761 10764 10767 10769 10772 10775 10777 10779 10781 10783 10784 10785 10787 10788 10789 10790 10790 10791 10792 10793
10640 10641 10643 10644 10645 10646 10647 10649 10650 10651 10653 10654 10656 10658 10660 10662 10664 10665 10667 10670 10672 10674 10675 10677 10679 10681 10684 10685 10687 10689 10691 10693 10695 10696 10699 10701 10703 10706 10709 10711 10714 10717 10719 10721 10724 10725 10725 10726 10728 10731 10734 10735 10737 10739 10740 10742 10743 10745 10746 10748 10750 10751 10751 10753 10754 10756 10759 10761 10764 10766 10768 10771 10773 10776 10778 10779 10781 10783 10784 10785 10785 10786 10787 10788 10788
10633 10635 10636 10638 10639 10640 10641 10643 10644 10645 10647 10648 10649 10651 10653 10656 10657 10659 10660 10662 10665 10667 10669 10671 10673 10675 10677 10679 10681 10683 10685 10687 10689 10691 10693 10695 10697 10700 10703 10706 10708 10711 10713 10715 10718 10720 10721 10721 10723 10726 10729 10730 10732 10735 10737 10738 10740 10741 10741 10743 10746 10747 10748 10750 10751 10752 10755 10757 10759 10761 10763 10765 10768 10770 10772 10773 10775 10777 10779 10780 10781 10782 10783 10784 10784
10626 10628 10629 10631 10632 10633 10635 10636 10637 10639 10640 10642 10643 10644 10646 10649 10651 10652 10654 10655 10657 10659 10661 10664 10666 10668 10670 10672 10675 10677 10679 10681 10683 10685 10687 10689 10692 10694 10696 10699 10702 10705 10707 10709 10711 10713 10715 10717 10719 10721 10724 10725 10727 10730 10732 10734 10736 10736 10737 10739 10741 10742 10745 10747 10747 10749 10751 10752 10755 10757 10758 10760 10763 10765 10766 10768 10770 10772 10774 10775 10777 10778 10779 10780 10780
10619 10620 10622 10623 10625 10626 10628 10629 10631 10632 10633 10635 10636 10637 10639 10641 10643 10645 10647 10648 10649 10651 10654 10656 10658 10661 10663 10665 10667 10670 10673 10675 10677 10679 10681 10683 10686 10688 10690 10692 10695 10698 10701 10703 10705 10707 10709 10711 10713 10715 10718 10720 10722 10725 10727 10730 10732 10731 10733 10735 10736 10738 10741 10743 10744 10746 10748 10749 10751 10753 10754 10756 10758 10760 10762 10763 10765 10766 10768 10770 10772 10773 10774 10775 10776
10611 10612 10614 10616 10617 10619 10621 10622 10624 10625 10626 10628 10629 10630 10631 10633 10635 10637 10638 10640 10642 10644 10646 10648 10650 10653 10655 10657 10660 10662 10665 10668 10671 10673 10675 10677 10679 10682 10684 10686 10689 10692 10695 10697 10699 10702 10704 10705 10707 10709 10712 10714 10717 10719 10721 10724 10726 10727 10729 10731 10732 10734 10736 10738 10740 10742 10744 10746 10748 10750 10751 10753 10754 10756 10758 10759 10760 10761 10762 10764 10766 10768 10769 10771 10772
10603 10604 10606 10608 10610 10611 10613 10615 10616 10618 10619 10620 10621 10621 10622 10624 10626 10628 10630 10632 10634 10636 10638 10640 10642 10644 10647 10649 10652 10654 10657 10660 10663 10666 10669 10671 10673 10675 10677 10680 10682 10685 10688 10691 10693 10696 10698 10699 10702 10704 10707 10709 10710 10712 10715 10718 10720 10722 10725 10726 10727 10729 10731 10734 10736 10737 10739 10742 10743 10746 10748 10749 10751 10752 10753 10754 10756 10756 10757 10759 10760 10762 10764 10766 10767